,,,PA_Meas_PMT16A,,PR_Meas_QMR101_102,,RH_Meas_QMH101,,SR_Meas_QMS101,,TA_Meas_QMH101,,GenWind,,GenWind,
date,time,status,PA,status,PR,status,RH,status,SR,status,TA,status,DirAvg,status,SpdAvg,
2009-05-13, 00:00:04,VALID,1001.87,VALID,0,VALID,86.6412,VALID,0,VALID,25.7655,VALID,7,VALID,0.122656,
2009-05-13, 00:01:04,VALID,1001.86,VALID,0,VALID,86.6412,VALID,0,VALID,25.7869,VALID,7,VALID,0.175,
2009-05-13, 00:02:04,VALID,1001.81,VALID,0,VALID,86.7556,VALID,0,VALID,25.7674,VALID,8,VALID,0.55625,
2009-05-13, 00:03:04,VALID,1001.81,VALID,0,VALID,86.8548,VALID,0,VALID,25.7265,VALID,8,VALID,0.310937,
2009-05-13, 00:04:04,VALID,1001.79,VALID,0,VALID,87.0303,VALID,0,VALID,25.6895,VALID,7,VALID,0.252734,
2009-05-13, 00:05:04,VALID,1001.77,VALID,0,VALID,87.2591,VALID,0,VALID,25.6486,VALID,7,VALID,0.231641,
2009-05-13, 00:06:04,VALID,1001.78,VALID,0,VALID,87.4727,VALID,0.100563,VALID,25.6097,VALID,7,VALID,0.141406,
2009-05-13, 00:07:04,VALID,1001.75,VALID,0,VALID,87.694,VALID,0,VALID,25.5532,VALID,6,VALID,0.420312,
2009-05-13, 00:08:04,VALID,1001.75,VALID,0,VALID,87.8008,VALID,0,VALID,25.5142,VALID,6,VALID,0.372266,
2009-05-13, 00:09:04,VALID,1001.73,VALID,0,VALID,87.9686,VALID,0.100563,VALID,25.4948,VALID,6,VALID,0.384766,
2009-05-13, 00:10:04,VALID,1001.74,VALID,0,VALID,88.0754,VALID,0,VALID,25.4558,VALID,6,VALID,0.449219,
2009-05-13, 00:11:04,VALID,1001.72,VALID,0,VALID,88.1822,VALID,0,VALID,25.4149,VALID,4,VALID,0.707812,
2009-05-13, 00:12:04,VALID,1001.71,VALID,0,VALID,88.2661,VALID,0,VALID,25.3955,VALID,355,VALID,0.436328,
2009-05-13, 00:13:04,VALID,1001.74,VALID,0,VALID,88.2814,VALID,0,VALID,25.4169,VALID,355,VALID,0.289453,
2009-05-13, 00:14:04,VALID,1001.77,VALID,0,VALID,88.2814,VALID,0.100563,VALID,25.3955,VALID,355,VALID,0.155078,
2009-05-13, 00:15:04,VALID,1001.78,VALID,0,VALID,88.3348,VALID,0,VALID,25.3955,VALID,355,VALID,0.292969,
2009-05-13, 00:16:04,VALID,1001.83,VALID,0,VALID,88.3729,VALID,0.100563,VALID,25.3565,VALID,353,VALID,0.791797,
2009-05-13, 00:17:04,VALID,1001.86,VALID,0,VALID,88.3424,VALID,0,VALID,25.3779,VALID,346,VALID,0.507031,
2009-05-13, 00:18:04,VALID,1001.91,VALID,0,VALID,88.2967,VALID,0.100563,VALID,25.376,VALID,2,VALID,0.780859,
2009-05-13, 00:19:04,VALID,1001.9,VALID,0,VALID,88.2738,VALID,0.100563,VALID,25.4149,VALID,294,VALID,0.514453,
2009-05-13, 00:20:04,VALID,1001.93,VALID,0,VALID,88.1746,VALID,0.100563,VALID,25.3935,VALID,344,VALID,0.759375,
2009-05-13, 00:21:04,VALID,1001.94,VALID,0,VALID,88.0831,VALID,0,VALID,25.4149,VALID,347,VALID,0.715234,
2009-05-13, 00:22:04,VALID,1001.92,VALID,0,VALID,88.0373,VALID,0,VALID,25.4558,VALID,355,VALID,0.697656,
2009-05-13, 00:23:04,VALID,1001.92,VALID,0,VALID,87.9839,VALID,0,VALID,25.4539,VALID,337,VALID,0.909375,
2009-05-13, 00:24:04,VALID,1001.89,VALID,0,VALID,87.8847,VALID,0,VALID,25.4948,VALID,353,VALID,0.444141,
2009-05-13, 00:25:04,VALID,1001.87,VALID,0,VALID,87.8771,VALID,0.100563,VALID,25.5142,VALID,354,VALID,0.00234375,
2009-05-13, 00:26:04,VALID,1001.85,VALID,0,VALID,87.9534,VALID,0,VALID,25.5142,VALID,324,VALID,0.696094,
2009-05-13, 00:27:04,VALID,1001.83,VALID,0,VALID,87.961,VALID,0,VALID,25.5142,VALID,305,VALID,0.276563,
2009-05-13, 00:28:04,VALID,1001.79,VALID,0,VALID,87.9305,VALID,0,VALID,25.5162,VALID,305,VALID,0.130078,
2009-05-13, 00:29:04,VALID,1001.78,VALID,0,VALID,87.9076,VALID,0,VALID,25.4948,VALID,335,VALID,0.571484,
2009-05-13, 00:30:04,VALID,1001.76,VALID,0,VALID,87.9152,VALID,0,VALID,25.5142,VALID,311,VALID,0.595312,
2009-05-13, 00:31:04,VALID,1001.75,VALID,0,VALID,87.8694,VALID,0,VALID,25.5123,VALID,269,VALID,0.389453,
2009-05-13, 00:32:04,VALID,1001.72,VALID,0,VALID,87.7398,VALID,0,VALID,25.5532,VALID,270,VALID,0.166797,
2009-05-13, 00:33:04,VALID,1001.72,VALID,0,VALID,87.7321,VALID,0,VALID,25.5532,VALID,353,VALID,0.528516,
2009-05-13, 00:34:04,VALID,1001.69,VALID,0,VALID,87.6787,VALID,0,VALID,25.5532,VALID,352,VALID,0.753516,
2009-05-13, 00:35:04,VALID,1001.67,VALID,0,VALID,87.8389,VALID,0,VALID,25.5123,VALID,358,VALID,0.461328,
2009-05-13, 00:36:04,VALID,1001.65,VALID,0,VALID,87.9381,VALID,0,VALID,25.4948,VALID,359,VALID,0.769922,
2009-05-13, 00:37:04,VALID,1001.62,VALID,0,VALID,88.022,VALID,0,VALID,25.4558,VALID,342,VALID,0.646875,
2009-05-13, 00:38:04,VALID,1001.57,VALID,0,VALID,88.1899,VALID,0,VALID,25.4363,VALID,344,VALID,0.580469,
2009-05-13, 00:39:04,VALID,1001.53,VALID,0,VALID,88.2738,VALID,0,VALID,25.4169,VALID,325,VALID,0.289453,
2009-05-13, 00:40:04,VALID,1001.52,VALID,0,VALID,88.3729,VALID,0,VALID,25.3974,VALID,351,VALID,0.648047,
2009-05-13, 00:41:04,VALID,1001.48,VALID,0,VALID,88.4569,VALID,0,VALID,25.3779,VALID,346,VALID,0.967969,
2009-05-13, 00:42:04,VALID,1001.49,VALID,0,VALID,88.4645,VALID,0,VALID,25.4169,VALID,327,VALID,0.619531,
2009-05-13, 00:43:04,VALID,1001.52,VALID,0,VALID,88.4264,VALID,0,VALID,25.4169,VALID,285,VALID,0.749219,
2009-05-13, 00:44:04,VALID,1001.53,VALID,0,VALID,88.4264,VALID,0.100563,VALID,25.4363,VALID,312,VALID,0.322656,
2009-05-13, 00:45:04,VALID,1001.57,VALID,0,VALID,88.4035,VALID,0,VALID,25.4363,VALID,289,VALID,0.267969,
2009-05-13, 00:46:04,VALID,1001.59,VALID,0,VALID,88.3195,VALID,0,VALID,25.4558,VALID,285,VALID,0.766406,
2009-05-13, 00:47:04,VALID,1001.63,VALID,0,VALID,88.2661,VALID,0,VALID,25.4539,VALID,308,VALID,0.417578,
2009-05-13, 00:48:04,VALID,1001.63,VALID,0,VALID,88.1212,VALID,0,VALID,25.5142,VALID,319,VALID,0.104297,
2009-05-13, 00:49:04,VALID,1001.61,VALID,0,VALID,88.0525,VALID,0,VALID,25.5337,VALID,308,VALID,0.663281,
2009-05-13, 00:50:04,VALID,1001.59,VALID,0,VALID,87.961,VALID,0,VALID,25.5318,VALID,354,VALID,0.233984,
2009-05-13, 00:51:04,VALID,1001.58,VALID,0,VALID,87.8389,VALID,0,VALID,25.5727,VALID,345,VALID,1.04766,
2009-05-13, 00:52:04,VALID,1001.56,VALID,0,VALID,87.694,VALID,0,VALID,25.5921,VALID,346,VALID,0.485938,
2009-05-13, 00:53:04,VALID,1001.55,VALID,0,VALID,87.6863,VALID,0,VALID,25.6116,VALID,348,VALID,0.630078,
2009-05-13, 00:54:04,VALID,1001.56,VALID,0,VALID,87.7016,VALID,0,VALID,25.5902,VALID,344,VALID,0.203125,
2009-05-13, 00:55:04,VALID,1001.57,VALID,0,VALID,87.7169,VALID,0,VALID,25.5921,VALID,344,VALID,0.0078125,
2009-05-13, 00:56:04,VALID,1001.58,VALID,0,VALID,87.7321,VALID,0,VALID,25.6116,VALID,290,VALID,0.570703,
2009-05-13, 00:57:04,VALID,1001.6,VALID,0,VALID,87.6482,VALID,0,VALID,25.5902,VALID,289,VALID,0.621875,
2009-05-13, 00:58:04,VALID,1001.62,VALID,0,VALID,87.5948,VALID,0,VALID,25.6097,VALID,279,VALID,0.820313,
2009-05-13, 00:59:04,VALID,1001.65,VALID,0,VALID,87.6711,VALID,0,VALID,25.6506,VALID,281,VALID,0.411719,
2009-05-13, 01:00:04,VALID,1001.69,VALID,0,VALID,87.4727,VALID,0,VALID,25.6292,VALID,240,VALID,0.574219,
2009-05-13, 01:01:04,VALID,1001.72,VALID,0,VALID,87.549,VALID,0,VALID,25.6506,VALID,235,VALID,0.607422,
2009-05-13, 01:02:04,VALID,1001.74,VALID,0,VALID,87.4956,VALID,0,VALID,25.6506,VALID,240,VALID,0.550391,
2009-05-13, 01:03:04,VALID,1001.75,VALID,0,VALID,87.6711,VALID,0,VALID,25.6311,VALID,224,VALID,0.725391,
2009-05-13, 01:04:04,VALID,1001.76,VALID,0,VALID,87.8923,VALID,0,VALID,25.5921,VALID,216,VALID,0.266406,
2009-05-13, 01:05:04,VALID,1001.76,VALID,0,VALID,88.0296,VALID,0,VALID,25.5727,VALID,216,VALID,0.197266,
2009-05-13, 01:06:04,VALID,1001.71,VALID,0,VALID,88.0983,VALID,0,VALID,25.5532,VALID,258,VALID,0.487109,
2009-05-13, 01:07:04,VALID,1001.76,VALID,0,VALID,88.2051,VALID,0,VALID,25.5532,VALID,220,VALID,1.88984,
2009-05-13, 01:08:04,VALID,1001.77,VALID,0,VALID,88.4645,VALID,0,VALID,25.5337,VALID,239,VALID,0.829297,
2009-05-13, 01:09:04,VALID,1001.72,VALID,0,VALID,88.6171,VALID,0,VALID,25.5337,VALID,223,VALID,1.18633,
2009-05-13, 01:10:04,VALID,1001.74,VALID,0,VALID,88.7086,VALID,0,VALID,25.5337,VALID,324,VALID,1.37773,
2009-05-13, 01:11:04,VALID,1001.73,VALID,0,VALID,88.8841,VALID,0,VALID,25.5123,VALID,243,VALID,0.560156,
2009-05-13, 01:12:04,VALID,1001.71,VALID,0,VALID,88.9985,VALID,0,VALID,25.5532,VALID,152,VALID,1.07344,
2009-05-13, 01:13:04,VALID,1001.7,VALID,0,VALID,89.1282,VALID,0,VALID,25.5727,VALID,198,VALID,0.402344,
2009-05-13, 01:14:04,VALID,1001.72,VALID,0,VALID,89.235,VALID,0,VALID,25.6116,VALID,209,VALID,1.33594,
2009-05-13, 01:15:04,VALID,1001.7,VALID,0,VALID,89.174,VALID,0,VALID,25.6116,VALID,201,VALID,1.41953,
2009-05-13, 01:16:04,VALID,1001.66,VALID,0,VALID,88.3653,VALID,0,VALID,25.6116,VALID,214,VALID,2.48047,
2009-05-13, 01:17:04,VALID,1001.62,VALID,0,VALID,88.1899,VALID,0,VALID,25.5727,VALID,173,VALID,1.17656,
2009-05-13, 01:18:04,VALID,1001.61,VALID,0,VALID,88.2509,VALID,0,VALID,25.5337,VALID,173,VALID,2.18438,
2009-05-13, 01:19:04,VALID,1001.58,VALID,0,VALID,88.4492,VALID,0,VALID,25.4948,VALID,217,VALID,0.971484,
2009-05-13, 01:20:04,VALID,1001.57,VALID,0,VALID,88.228,VALID,0,VALID,25.4753,VALID,181,VALID,1.025,
2009-05-13, 01:21:04,VALID,1001.51,VALID,0,VALID,88.5255,VALID,0,VALID,25.4363,VALID,117,VALID,1.17969,
2009-05-13, 01:22:04,VALID,1001.47,VALID,0,VALID,88.5179,VALID,0,VALID,25.4169,VALID,170,VALID,1.28984,
2009-05-13, 01:23:04,VALID,1001.46,VALID,0,VALID,88.7849,VALID,0,VALID,25.4169,VALID,212,VALID,1.49141,
2009-05-13, 01:24:04,VALID,1001.43,VALID,0,VALID,88.8917,VALID,0,VALID,25.3974,VALID,202,VALID,0.267969,
2009-05-13, 01:25:04,VALID,1001.37,VALID,0,VALID,89.1206,VALID,0,VALID,25.4169,VALID,44,VALID,0.713672,
2009-05-13, 01:26:04,VALID,1001.33,VALID,0,VALID,89.3876,VALID,0,VALID,25.4149,VALID,53,VALID,0.291016,
2009-05-13, 01:27:04,VALID,1001.3,VALID,0,VALID,89.6012,VALID,0,VALID,25.4363,VALID,226,VALID,0.529688,
2009-05-13, 01:28:04,VALID,1001.27,VALID,0,VALID,89.6927,VALID,0,VALID,25.4948,VALID,177,VALID,0.878125,
2009-05-13, 01:29:04,VALID,1001.27,VALID,0,VALID,89.5249,VALID,0,VALID,25.5142,VALID,230,VALID,1.20547,
2009-05-13, 01:30:04,VALID,1001.21,VALID,0,VALID,89.38,VALID,0,VALID,25.5532,VALID,125,VALID,0.650781,
2009-05-13, 01:31:04,VALID,1001.19,VALID,0,VALID,89.1969,VALID,0,VALID,25.6116,VALID,35,VALID,0.528125,
2009-05-13, 01:32:04,VALID,1001.18,VALID,0,VALID,88.8536,VALID,0,VALID,25.6116,VALID,219,VALID,0.649609,
2009-05-13, 01:33:04,VALID,1001.18,VALID,0,VALID,88.8002,VALID,0,VALID,25.6506,VALID,183,VALID,0.252734,
2009-05-13, 01:34:04,VALID,1001.17,VALID,0,VALID,88.3958,VALID,0,VALID,25.67,VALID,187,VALID,0.9375,
2009-05-13, 01:35:04,VALID,1001.15,VALID,0,VALID,88.1059,VALID,0,VALID,25.6895,VALID,194,VALID,0.826953,
2009-05-13, 01:36:04,VALID,1001.13,VALID,0,VALID,87.9686,VALID,0,VALID,25.7499,VALID,214,VALID,0.751172,
2009-05-13, 01:37:04,VALID,1001.14,VALID,0,VALID,87.9381,VALID,0,VALID,25.748,VALID,163,VALID,0.228516,
2009-05-13, 01:38:04,VALID,1001.13,VALID,0,VALID,87.9,VALID,0,VALID,25.7674,VALID,147,VALID,0.245703,
2009-05-13, 01:39:04,VALID,1001.11,VALID,0,VALID,87.8771,VALID,0,VALID,25.7869,VALID,147,VALID,0.112891,
2009-05-13, 01:40:04,VALID,1001.15,VALID,0,VALID,87.8237,VALID,0,VALID,25.7674,VALID,147,VALID,0.128516,
2009-05-13, 01:41:04,VALID,1001.11,VALID,0,VALID,87.6635,VALID,0,VALID,25.7869,VALID,145,VALID,0.358984,
2009-05-13, 01:42:04,VALID,1001.12,VALID,0,VALID,87.7703,VALID,0,VALID,25.8064,VALID,359,VALID,0.667578,
2009-05-13, 01:43:04,VALID,1001.14,VALID,0,VALID,87.9839,VALID,0,VALID,25.8278,VALID,357,VALID,0.163281,
2009-05-13, 01:44:04,VALID,1001.13,VALID,0,VALID,87.9,VALID,0,VALID,25.7869,VALID,357,VALID,0.156641,
2009-05-13, 01:45:04,VALID,1001.13,VALID,0,VALID,87.9076,VALID,0,VALID,25.8064,VALID,200,VALID,1.21836,
2009-05-13, 01:46:04,VALID,1001.14,VALID,0,VALID,88.1059,VALID,0,VALID,25.8064,VALID,216,VALID,0.516406,
2009-05-13, 01:47:04,VALID,1001.17,VALID,0,VALID,88.228,VALID,0,VALID,25.8064,VALID,160,VALID,0.25625,
2009-05-13, 01:48:04,VALID,1001.2,VALID,0,VALID,88.228,VALID,0,VALID,25.7869,VALID,160,VALID,0.0175781,
2009-05-13, 01:49:04,VALID,1001.23,VALID,0,VALID,88.4416,VALID,0,VALID,25.7674,VALID,160,VALID,0.260547,
2009-05-13, 01:50:04,VALID,1001.23,VALID,0,VALID,88.5484,VALID,0,VALID,25.7674,VALID,307,VALID,0.359375,
2009-05-13, 01:51:04,VALID,1001.22,VALID,0,VALID,88.5332,VALID,0,VALID,25.7674,VALID,258,VALID,0.410156,
2009-05-13, 01:52:04,VALID,1001.24,VALID,0,VALID,88.762,VALID,0,VALID,25.748,VALID,248,VALID,0.394531,
2009-05-13, 01:53:04,VALID,1001.25,VALID,0,VALID,88.7773,VALID,0,VALID,25.748,VALID,135,VALID,0.642578,
2009-05-13, 01:54:04,VALID,1001.29,VALID,0,VALID,88.8231,VALID,0,VALID,25.7285,VALID,158,VALID,0.246094,
2009-05-13, 01:55:04,VALID,1001.3,VALID,0,VALID,88.9146,VALID,0,VALID,25.709,VALID,158,VALID,0.120703,
2009-05-13, 01:56:04,VALID,1001.31,VALID,0,VALID,89.0061,VALID,0,VALID,25.6876,VALID,158,VALID,0.0863281,
2009-05-13, 01:57:04,VALID,1001.37,VALID,0,VALID,89.1282,VALID,0,VALID,25.67,VALID,158,VALID,0.0582031,
2009-05-13, 01:58:04,VALID,1001.35,VALID,0,VALID,89.2732,VALID,0,VALID,25.67,VALID,158,VALID,0,
2009-05-13, 01:59:04,VALID,1001.38,VALID,0,VALID,89.4257,VALID,0,VALID,25.6311,VALID,158,VALID,0,
2009-05-13, 02:00:04,VALID,1001.39,VALID,0,VALID,89.7767,VALID,0,VALID,25.6311,VALID,158,VALID,0,
2009-05-13, 02:01:04,VALID,1001.39,VALID,0,VALID,90.1505,VALID,0,VALID,25.5921,VALID,158,VALID,0,
2009-05-13, 02:02:04,VALID,1001.38,VALID,0,VALID,90.4862,VALID,0,VALID,25.5532,VALID,158,VALID,0,
2009-05-13, 02:03:04,VALID,1001.39,VALID,0,VALID,90.6921,VALID,0,VALID,25.4928,VALID,158,VALID,0,
2009-05-13, 02:04:04,VALID,1001.4,VALID,0,VALID,90.9286,VALID,0,VALID,25.4753,VALID,158,VALID,0,
2009-05-13, 02:05:04,VALID,1001.4,VALID,0,VALID,91.1041,VALID,0,VALID,25.4363,VALID,158,VALID,0.292578,
2009-05-13, 02:06:04,VALID,1001.39,VALID,0,VALID,91.2567,VALID,0,VALID,25.4363,VALID,93,VALID,0.605469,
2009-05-13, 02:07:04,VALID,1001.39,VALID,0,VALID,91.394,VALID,0,VALID,25.376,VALID,93,VALID,0.194141,
2009-05-13, 02:08:04,VALID,1001.4,VALID,0,VALID,91.5771,VALID,0,VALID,25.3779,VALID,92,VALID,0.334375,
2009-05-13, 02:09:04,VALID,1001.39,VALID,0.5,VALID,91.7602,VALID,0,VALID,25.3195,VALID,92,VALID,0.150781,
2009-05-13, 02:10:04,VALID,1001.37,VALID,0,VALID,91.9051,VALID,0,VALID,25.3,VALID,92,VALID,0.122266,
2009-05-13, 02:11:04,VALID,1001.37,VALID,0,VALID,92.073,VALID,0,VALID,25.2806,VALID,92,VALID,0.0410156,
2009-05-13, 02:12:04,VALID,1001.37,VALID,0,VALID,92.2103,VALID,0,VALID,25.2416,VALID,92,VALID,0.136719,
2009-05-13, 02:13:04,VALID,1001.34,VALID,0,VALID,92.3171,VALID,0,VALID,25.2221,VALID,92,VALID,0.446484,
2009-05-13, 02:14:04,VALID,1001.33,VALID,0,VALID,92.4849,VALID,0.100563,VALID,25.1618,VALID,92,VALID,0.431641,
2009-05-13, 02:15:04,VALID,1001.27,VALID,0,VALID,92.6604,VALID,0,VALID,25.1423,VALID,61,VALID,0.580469,
2009-05-13, 02:16:04,VALID,1001.27,VALID,0,VALID,92.813,VALID,0,VALID,25.1442,VALID,60,VALID,0.441797,
2009-05-13, 02:17:04,VALID,1001.24,VALID,0,VALID,92.9045,VALID,0,VALID,25.1248,VALID,60,VALID,0.367578,
2009-05-13, 02:18:04,VALID,1001.21,VALID,0,VALID,92.9503,VALID,0,VALID,25.0644,VALID,60,VALID,0.138672,
2009-05-13, 02:19:04,VALID,1001.18,VALID,0,VALID,93.0418,VALID,0,VALID,25.0663,VALID,60,VALID,0.2625,
2009-05-13, 02:20:04,VALID,1001.14,VALID,0,VALID,93.1257,VALID,0,VALID,25.0255,VALID,60,VALID,0.406641,
2009-05-13, 02:21:04,VALID,1001.12,VALID,0,VALID,93.1791,VALID,0,VALID,25.0274,VALID,60,VALID,0.358984,
2009-05-13, 02:22:04,VALID,1001.09,VALID,0.5,VALID,93.2859,VALID,0.100563,VALID,25.006,VALID,60,VALID,0.274219,
2009-05-13, 02:23:04,VALID,1001.08,VALID,0,VALID,93.3317,VALID,0,VALID,25.0079,VALID,60,VALID,0.444141,
2009-05-13, 02:24:04,VALID,1001.02,VALID,0,VALID,93.4538,VALID,0,VALID,24.9671,VALID,60,VALID,0.3375,
2009-05-13, 02:25:04,VALID,1001.03,VALID,0,VALID,93.4919,VALID,0.100563,VALID,24.969,VALID,60,VALID,0.362109,
2009-05-13, 02:26:04,VALID,1001.01,VALID,0,VALID,93.5148,VALID,0,VALID,24.9495,VALID,62,VALID,0.205469,
2009-05-13, 02:27:04,VALID,1001.01,VALID,0,VALID,93.5835,VALID,0,VALID,24.9087,VALID,62,VALID,0.00078125,
2009-05-13, 02:28:04,VALID,1000.99,VALID,0,VALID,93.6292,VALID,0,VALID,24.93,VALID,62,VALID,0.000390625,
2009-05-13, 02:29:04,VALID,1000.93,VALID,0,VALID,93.6903,VALID,0,VALID,24.93,VALID,62,VALID,0.129297,
2009-05-13, 02:30:04,VALID,1000.91,VALID,0,VALID,93.7666,VALID,0,VALID,24.9106,VALID,62,VALID,0.132813,
2009-05-13, 02:31:04,VALID,1000.9,VALID,0,VALID,93.8123,VALID,0,VALID,24.9106,VALID,62,VALID,0.0519531,
2009-05-13, 02:32:04,VALID,1000.9,VALID,0,VALID,93.8505,VALID,0,VALID,24.8911,VALID,62,VALID,0.169531,
2009-05-13, 02:33:04,VALID,1000.88,VALID,0,VALID,93.881,VALID,0,VALID,24.8911,VALID,62,VALID,0,
2009-05-13, 02:34:04,VALID,1000.87,VALID,0,VALID,93.9191,VALID,0,VALID,24.8716,VALID,62,VALID,0.312109,
2009-05-13, 02:35:04,VALID,1000.87,VALID,0,VALID,93.9802,VALID,0,VALID,24.8503,VALID,62,VALID,0.422656,
2009-05-13, 02:36:04,VALID,1000.83,VALID,0,VALID,94.0031,VALID,0.100563,VALID,24.8503,VALID,62,VALID,0.317578,
2009-05-13, 02:37:04,VALID,1000.86,VALID,0,VALID,94.0336,VALID,0,VALID,24.8522,VALID,62,VALID,0.282031,
2009-05-13, 02:38:04,VALID,1000.84,VALID,0,VALID,94.0717,VALID,0,VALID,24.8308,VALID,62,VALID,0.114063,
2009-05-13, 02:39:04,VALID,1000.88,VALID,0,VALID,94.0565,VALID,0,VALID,24.8522,VALID,62,VALID,0.204297,
2009-05-13, 02:40:04,VALID,1000.89,VALID,0,VALID,94.1404,VALID,0,VALID,24.8522,VALID,62,VALID,0.0464844,
2009-05-13, 02:41:04,VALID,1000.88,VALID,0,VALID,94.1556,VALID,0,VALID,24.8132,VALID,62,VALID,0.0183594,
2009-05-13, 02:42:04,VALID,1000.86,VALID,0,VALID,94.1709,VALID,0.100563,VALID,24.8113,VALID,62,VALID,0,
2009-05-13, 02:43:04,VALID,1000.86,VALID,0,VALID,94.209,VALID,0.100563,VALID,24.8327,VALID,62,VALID,0.0652344,
2009-05-13, 02:44:04,VALID,1000.88,VALID,0,VALID,94.2396,VALID,0,VALID,24.8132,VALID,62,VALID,0.114844,
2009-05-13, 02:45:04,VALID,1000.87,VALID,0,VALID,94.2472,VALID,0,VALID,24.8132,VALID,62,VALID,0.155469,
2009-05-13, 02:46:04,VALID,1000.84,VALID,0.5,VALID,94.2853,VALID,0,VALID,24.7919,VALID,62,VALID,0.206641,
2009-05-13, 02:47:04,VALID,1000.88,VALID,0,VALID,94.2777,VALID,0,VALID,24.7724,VALID,62,VALID,0.162891,
2009-05-13, 02:48:04,VALID,1000.84,VALID,0,VALID,94.293,VALID,0.100563,VALID,24.7529,VALID,62,VALID,0.186328,
2009-05-13, 02:49:04,VALID,1000.89,VALID,0,VALID,94.3235,VALID,0,VALID,24.7743,VALID,62,VALID,0.235547,
2009-05-13, 02:50:04,VALID,1000.86,VALID,0,VALID,94.354,VALID,0,VALID,24.7529,VALID,62,VALID,0.021875,
2009-05-13, 02:51:04,VALID,1000.85,VALID,0,VALID,94.3692,VALID,0,VALID,24.7548,VALID,62,VALID,0.159375,
2009-05-13, 02:52:04,VALID,1000.87,VALID,0,VALID,94.4074,VALID,0,VALID,24.7335,VALID,62,VALID,0,
2009-05-13, 02:53:04,VALID,1000.87,VALID,0,VALID,94.415,VALID,0.100563,VALID,24.7335,VALID,62,VALID,0.00976563,
2009-05-13, 02:54:04,VALID,1000.88,VALID,0,VALID,94.4455,VALID,0,VALID,24.7529,VALID,62,VALID,0.245703,
2009-05-13, 02:55:04,VALID,1000.88,VALID,0,VALID,94.4608,VALID,0,VALID,24.7335,VALID,62,VALID,0,
2009-05-13, 02:56:04,VALID,1000.88,VALID,0,VALID,94.4608,VALID,0.100563,VALID,24.7548,VALID,62,VALID,0,
2009-05-13, 02:57:04,VALID,1000.92,VALID,0,VALID,94.4989,VALID,0,VALID,24.7353,VALID,62,VALID,0,
2009-05-13, 02:58:04,VALID,1000.91,VALID,0,VALID,94.5066,VALID,0,VALID,24.7159,VALID,62,VALID,0,
2009-05-13, 02:59:04,VALID,1000.92,VALID,0,VALID,94.5142,VALID,0,VALID,24.7353,VALID,62,VALID,0,
2009-05-13, 03:00:05,VALID,1000.91,VALID,0,VALID,94.5752,VALID,0,VALID,24.7353,VALID,62,VALID,0,
2009-05-13, 03:01:05,VALID,1000.9,VALID,0,VALID,94.5905,VALID,0,VALID,24.7548,VALID,62,VALID,0,
2009-05-13, 03:02:05,VALID,1000.88,VALID,0,VALID,94.5829,VALID,0,VALID,24.7353,VALID,62,VALID,0.228516,
2009-05-13, 03:03:05,VALID,1000.9,VALID,0,VALID,94.6057,VALID,0,VALID,24.7548,VALID,62,VALID,0.335938,
2009-05-13, 03:04:05,VALID,1000.87,VALID,0,VALID,94.6439,VALID,0,VALID,24.7761,VALID,62,VALID,0.376953,
2009-05-13, 03:05:05,VALID,1000.86,VALID,0,VALID,94.5981,VALID,0,VALID,24.7353,VALID,21,VALID,0.667578,
2009-05-13, 03:06:05,VALID,1000.83,VALID,0,VALID,94.6286,VALID,0,VALID,24.7567,VALID,19,VALID,0.641797,
2009-05-13, 03:07:05,VALID,1000.8,VALID,0,VALID,94.6515,VALID,0,VALID,24.7567,VALID,19,VALID,0.569141,
2009-05-13, 03:08:05,VALID,1000.79,VALID,0,VALID,94.6744,VALID,0,VALID,24.7353,VALID,18,VALID,0.622266,
2009-05-13, 03:09:05,VALID,1000.79,VALID,0,VALID,94.6897,VALID,0,VALID,24.7353,VALID,18,VALID,0.523047,
2009-05-13, 03:10:05,VALID,1000.78,VALID,0,VALID,94.6668,VALID,0,VALID,24.7372,VALID,18,VALID,0.582812,
2009-05-13, 03:11:05,VALID,1000.75,VALID,0,VALID,94.682,VALID,0,VALID,24.6964,VALID,18,VALID,0.345703,
2009-05-13, 03:12:05,VALID,1000.79,VALID,0,VALID,94.6973,VALID,0,VALID,24.7159,VALID,18,VALID,0.426562,
2009-05-13, 03:13:05,VALID,1000.76,VALID,0,VALID,94.6973,VALID,0.100563,VALID,24.7159,VALID,18,VALID,0.264062,
2009-05-13, 03:14:05,VALID,1000.78,VALID,0,VALID,94.7202,VALID,0,VALID,24.675,VALID,18,VALID,0,
2009-05-13, 03:15:05,VALID,1000.78,VALID,0.5,VALID,94.7278,VALID,0,VALID,24.6769,VALID,18,VALID,0,
2009-05-13, 03:16:05,VALID,1000.81,VALID,0,VALID,94.7507,VALID,0,VALID,24.675,VALID,18,VALID,0,
2009-05-13, 03:17:05,VALID,1000.81,VALID,0,VALID,94.7507,VALID,0.100563,VALID,24.675,VALID,18,VALID,0,
2009-05-13, 03:18:05,VALID,1000.85,VALID,0,VALID,94.7507,VALID,0,VALID,24.675,VALID,18,VALID,0.1625,
2009-05-13, 03:19:05,VALID,1000.86,VALID,0,VALID,94.7812,VALID,0,VALID,24.6964,VALID,18,VALID,0.324609,
2009-05-13, 03:20:05,VALID,1000.89,VALID,0,VALID,94.827,VALID,0.100563,VALID,24.6945,VALID,30,VALID,0.466016,
2009-05-13, 03:21:05,VALID,1000.92,VALID,0,VALID,94.8422,VALID,0,VALID,24.6945,VALID,88,VALID,0.627734,
2009-05-13, 03:22:05,VALID,1000.93,VALID,0,VALID,94.8651,VALID,0.100563,VALID,24.7353,VALID,108,VALID,0.719922,
2009-05-13, 03:23:05,VALID,1000.97,VALID,0,VALID,94.8422,VALID,0,VALID,24.6945,VALID,128,VALID,0.598828,
2009-05-13, 03:24:05,VALID,1000.97,VALID,0,VALID,94.8422,VALID,0,VALID,24.714,VALID,128,VALID,0.386328,
2009-05-13, 03:25:05,VALID,1001.02,VALID,0,VALID,94.8728,VALID,0,VALID,24.714,VALID,128,VALID,0.43125,
2009-05-13, 03:26:05,VALID,1001.02,VALID,0,VALID,94.8956,VALID,0,VALID,24.714,VALID,128,VALID,0.792188,
2009-05-13, 03:27:05,VALID,1001.03,VALID,0,VALID,94.9033,VALID,0,VALID,24.7159,VALID,117,VALID,0.644922,
2009-05-13, 03:28:05,VALID,1001.06,VALID,0,VALID,94.8575,VALID,0,VALID,24.6964,VALID,116,VALID,0.801562,
2009-05-13, 03:29:05,VALID,1001.05,VALID,0,VALID,94.8499,VALID,0,VALID,24.7177,VALID,95,VALID,0.686719,
2009-05-13, 03:30:05,VALID,1001.07,VALID,0,VALID,94.8499,VALID,0,VALID,24.6788,VALID,95,VALID,0.352734,
2009-05-13, 03:31:05,VALID,1001.13,VALID,0,VALID,94.8575,VALID,0,VALID,24.6574,VALID,95,VALID,0.249219,
2009-05-13, 03:32:05,VALID,1001.14,VALID,0,VALID,94.8728,VALID,0,VALID,24.638,VALID,95,VALID,0.20625,
2009-05-13, 03:33:05,VALID,1001.16,VALID,0,VALID,94.8804,VALID,0,VALID,24.638,VALID,95,VALID,0.0382813,
2009-05-13, 03:34:05,VALID,1001.18,VALID,0,VALID,94.8956,VALID,0,VALID,24.6593,VALID,95,VALID,0,
2009-05-13, 03:35:05,VALID,1001.18,VALID,0,VALID,94.9109,VALID,0,VALID,24.6185,VALID,95,VALID,0.0804688,
2009-05-13, 03:36:05,VALID,1001.23,VALID,0,VALID,94.9033,VALID,0,VALID,24.6185,VALID,95,VALID,0.245703,
2009-05-13, 03:37:05,VALID,1001.21,VALID,0,VALID,94.9033,VALID,0,VALID,24.599,VALID,95,VALID,0.157031,
2009-05-13, 03:38:05,VALID,1001.23,VALID,0,VALID,94.9262,VALID,0,VALID,24.6185,VALID,95,VALID,0.146484,
2009-05-13, 03:39:05,VALID,1001.24,VALID,0,VALID,94.9414,VALID,0,VALID,24.6185,VALID,95,VALID,0.258594,
2009-05-13, 03:40:05,VALID,1001.26,VALID,0,VALID,94.9567,VALID,0,VALID,24.6398,VALID,95,VALID,0.00820312,
2009-05-13, 03:41:05,VALID,1001.27,VALID,0,VALID,94.9567,VALID,0,VALID,24.6398,VALID,95,VALID,0.176172,
2009-05-13, 03:42:05,VALID,1001.25,VALID,0,VALID,94.9796,VALID,0.100563,VALID,24.6166,VALID,95,VALID,0.287891,
2009-05-13, 03:43:05,VALID,1001.29,VALID,0,VALID,94.9796,VALID,0.100563,VALID,24.6574,VALID,95,VALID,0.233203,
2009-05-13, 03:44:05,VALID,1001.31,VALID,0,VALID,95.0177,VALID,0.100563,VALID,24.6556,VALID,95,VALID,0.228906,
2009-05-13, 03:45:05,VALID,1001.33,VALID,0,VALID,94.9948,VALID,0.100563,VALID,24.6769,VALID,95,VALID,0.0507813,